Montreal Mirabel, Quebec

7:42 AM EDT on September 24, 2017 (GMT -0400)
Montreal Mirabel

Weather History for CYMX - March, 2014

Change the Weather History Date:

Sunday, March 16, 2014

  Actual Average Record
Temperature  
Mean Temperature 11 °F -  
Max Temperature 17 °F 29 °F 42 °F (2016)
Min Temperature 5 °F 14 °F 3 °F (1997)
Degree Days  
Heating Degree Days 54    
Moisture  
Dew Point -7 °F    
Average Humidity 47    
Maximum Humidity 58    
Minimum Humidity 34    
Precipitation  
Precipitation 0.00 in - - ()
Sea Level Pressure  
Sea Level Pressure 30.19 in    
Wind  
Wind Speed 10 mph ()    
Max Wind Speed 15 mph    
Max Gust Speed 26 mph    
Averages and records for this station are not official NWS values.
T = Trace of Precipitation, MM = Missing Value Source: Averaged Metar Reports

Daily Weather History Graph

Daily Weather History Graph

Search for Another Location

Airport or City:

Trip Planner

Search our weather history database for the weather conditions in past years. The results will help you decide how hot, cold, wet, or windy it might be!

Date:

Astronomy

Mar. 16, 2014 Rise Set
Actual Time 7:06 AM EDT 7:03 PM EDT
Civil Twilight 6:37 AM EDT 7:32 PM EDT
Nautical Twilight 6:02 AM EDT 8:07 PM EDT
Astronomical Twilight 5:27 AM EDT 8:43 PM EDT
Moon 7:20 PM EDT (3/16) 6:48 AM EDT (3/16)
Length of Visible Light 12h 55m
Length of Day
11h 56m
Full, 100% of the Moon is Illuminated
Mar 16
Full
Mar 16
Full
Mar 23
Last Quarter
Mar 30
New
Apr 7
First Quarter

Hourly Weather History & Observations

Time (EDT) Temp. Windchill Dew Point Humidity Pressure Visibility Wind Dir Wind Speed Gust Speed Precip Events Conditions
12:00 AM 17.6 °F 3.7 °F 3.2 °F 53% 29.99 in 25.0 mi NW 13.8 mph 26.5 mph N/A   Partly Cloudy
1:00 AM 15.8 °F 1.4 °F 3.2 °F 58% 30.02 in 25.0 mi West 13.8 mph 24.2 mph N/A   Partly Cloudy
2:00 AM 14.0 °F -0.8 °F -0.4 °F 53% 30.04 in 25.0 mi WNW 13.8 mph 24.2 mph N/A   Partly Cloudy
3:00 AM 12.2 °F -1.8 °F -2.2 °F 53% 30.06 in 25.0 mi NW 11.5 mph 23.0 mph N/A   Partly Cloudy
4:00 AM 10.4 °F -0.4 °F -4.0 °F 52% 30.08 in 25.0 mi WNW 6.9 mph - N/A   Partly Cloudy
5:00 AM 8.6 °F -5.5 °F -7.6 °F 48% 30.12 in 25.0 mi WNW 10.4 mph 24.2 mph N/A   Partly Cloudy
6:00 AM 6.8 °F -8.6 °F -7.6 °F 52% 30.15 in 25.0 mi WNW 11.5 mph 18.4 mph N/A   Partly Cloudy
7:00 AM 5.0 °F -8.1 °F -11.2 °F 47% 30.18 in 45.0 mi WNW 8.1 mph - N/A   Partly Cloudy
8:00 AM 5.0 °F -4.1 °F -9.4 °F 52% 30.22 in 45.0 mi WNW 4.6 mph - N/A   Partly Cloudy
9:00 AM 5.0 °F -8.1 °F -11.2 °F 47% 30.24 in 45.0 mi West 8.1 mph 19.6 mph N/A   Partly Cloudy
10:00 AM 5.0 °F -9.1 °F -11.2 °F 47% 30.25 in 45.0 mi West 9.2 mph 19.6 mph N/A   Partly Cloudy
11:00 AM 6.8 °F -7.8 °F -9.4 °F 48% 30.26 in 45.0 mi West 10.4 mph 17.3 mph N/A   Partly Cloudy
12:00 PM 8.6 °F -6.3 °F -11.2 °F 40% 30.26 in 45.0 mi WNW 11.5 mph 21.9 mph N/A   Partly Cloudy
1:00 PM 10.4 °F -4.8 °F -9.4 °F 41% 30.26 in 45.0 mi West 12.7 mph 19.6 mph N/A   Partly Cloudy
2:00 PM 12.2 °F -3.7 °F -9.4 °F 38% 30.25 in 45.0 mi West 15.0 mph 24.2 mph N/A   Partly Cloudy
3:00 PM 12.2 °F -3.1 °F -11.2 °F 34% 30.25 in 45.0 mi WSW 13.8 mph 20.7 mph N/A   Partly Cloudy
4:00 PM 14.0 °F -0.2 °F -7.6 °F 38% 30.24 in 45.0 mi West 12.7 mph 19.6 mph N/A   Partly Cloudy
5:00 PM 14.0 °F 1.2 °F -7.6 °F 38% 30.24 in 45.0 mi West 10.4 mph 19.6 mph N/A   Partly Cloudy
6:00 PM 12.2 °F -1.8 °F -9.4 °F 38% 30.25 in 45.0 mi WSW 11.5 mph 21.9 mph N/A   Partly Cloudy
7:00 PM 10.4 °F -2.4 °F -7.6 °F 44% 30.25 in 25.0 mi WSW 9.2 mph 18.4 mph N/A   Partly Cloudy
8:00 PM 8.6 °F -3.7 °F -7.6 °F 48% 30.26 in 25.0 mi WSW 8.1 mph - N/A   Clear
9:00 PM 6.8 °F -4.8 °F -9.4 °F 48% 30.26 in 25.0 mi WSW 6.9 mph - N/A   Clear
10:00 PM 5.0 °F -5.6 °F -9.4 °F 52% 30.27 in 25.0 mi WSW 5.8 mph - N/A   Clear
11:00 PM 5.0 °F - -9.4 °F 52% 30.27 in 25.0 mi West 2.3 mph - N/A   Clear